Location: Baia Mare
(47.6567°N, 23.5850°E)
Time: 08:51:14
(UTC+03:00)

ISS - Pass Details

Date: 21 May 2018
Orbit: 402 x 407 km, 51.6° (Epoch: 23 May)

Event Time Altitude Azimuth Distance (km) Brightness Sun altitude
Rises 21:41:02 0° 200° (SSW) 2,307 -0.2 -5.9°
Reaches altitude 10° 21:43:38 10° 178° (S) 1,452 -1.4 -6.3°
Maximum altitude 21:45:44 16° 137° (SE) 1,137 -2.2 -6.5°
Drops below altitude 10° 21:47:52 10° 96° (E) 1,457 -1.5 -6.8°
Sets 21:50:28 0° 75° (ENE) 2,320 -0.3 -7.1°
